Wind_Speed
20 20 20 19 19 19 20 21 21 19 19 17 17 16 16 16 15 14 14 14 13 13 14 14 14 15 15 16 16 16 16 15 15 15 15 15 15 15 15 15 15 14 14 15
21 22 22 21 20 20 21 21 21 20 20 18 18 17 17 16 16 15 14 14 14 14 14 15 15 15 15 16 16 16 16 16 16 16 16 16 16 16 16 16 16 16 15 15
22 22 23 22 20 20 21 20 20 20 19 19 19 19 18 18 18 17 16 16 16 16 15 15 15 15 16 16 17 17 17 17 17 17 17 17 17 17 17 17 17 16 16 16
23 23 24 20 19 20 20 21 21 20 19 19 19 19 19 19 19 18 17 17 18 18 17 16 16 16 16 17 17 17 17 17 17 17 17 17 18 18 18 18 18 18 18 18
23 24 23 21 20 20 21 21 21 20 19 20 19 20 20 19 19 19 18 18 19 18 18 17 17 17 17 17 17 17 16 16 17 17 18 18 19 19 20 19 18 18 19 19
23 24 24 21 21 20 21 21 20 20 19 20 19 20 19 19 19 19 19 19 20 19 19 19 18 18 18 18 18 17 17 17 18 18 19 19 19 19 19 19 19 19 19 19
24 24 23 23 22 21 21 20 21 21 21 21 21 20 20 20 20 20 20 20 20 21 20 20 20 19 19 19 19 19 19 19 19 18 18 18 19 19 20 20 19 20 20 20
24 25 23 23 24 23 22 21 21 21 22 21 21 21 21 20 20 21 21 21 21 21 20 21 22 21 20 20 20 20 20 19 19 19 19 19 18 19 19 20 20 20 20 20
24 24 24 24 25 25 23 23 23 22 22 22 22 21 21 21 22 22 22 21 21 21 20 21 21 21 21 21 21 21 21 21 20 20 19 19 19 19 19 19 20 21 21 21
26 26 26 26 26 26 25 25 24 24 24 23 23 22 23 23 22 22 22 22 21 21 20 21 22 22 22 22 21 21 21 21 21 21 20 20 20 20 19 19 20 20 21 21
27 27 28 28 28 27 26 25 25 25 25 25 24 24 23 23 22 21 21 22 22 22 21 21 21 22 22 22 22 21 21 21 22 21 21 21 21 21 21 21 20 21 21 21
27 27 28 28 28 27 27 26 26 26 26 25 26 25 23 23 23 22 22 22 22 21 22 22 21 21 22 22 22 22 21 21 22 22 22 22 22 22 22 22 21 21 21 21
28 27 27 26 26 26 26 27 27 27 26 26 26 25 24 24 24 23 22 22 21 21 21 22 21 21 21 22 22 22 22 21 22 22 22 22 22 23 23 23 22 22 23 23
28 28 28 27 26 26 26 27 27 26 26 26 26 25 25 24 24 23 23 22 22 22 22 22 22 22 22 22 22 22 22 22 22 21 21 21 22 22 23 23 23 23 24 23
29 29 27 26 26 26 27 27 27 27 26 26 26 25 25 24 24 24 24 23 23 23 22 22 22 22 22 22 22 22 22 21 22 22 22 22 22 23 23 23 23 23 24 24
30 29 27 27 27 26 27 27 26 27 26 25 25 25 24 24 24 23 23 23 23 23 23 22 22 21 22 22 22 22 22 22 22 22 22 22 23 23 23 23 24 24 24 25
30 29 29 29 29 28 28 27 27 27 26 25 25 26 26 25 25 24 23 23 23 23 23 23 23 23 22 23 23 23 23 23 23 23 23 23 23 24 24 24 24 25 25 26
29 29 29 29 28 28 28 29 29 28 27 27 26 26 27 27 26 25 25 25 24 23 23 23 23 23 23 23 23 23 24 24 24 25 25 25 25 26 26 25 26 26 26 27
28 28 28 28 28 28 28 28 30 29 29 29 28 26 26 27 27 26 26 26 24 24 23 23 23 24 24 24 25 25 25 25 26 27 27 27 27 27 27 27 28 28 28 29
28 28 27 27 28 28 28 29 29 29 30 30 30 29 28 27 27 27 27 27 26 25 25 24 24 25 25 26 26 26 26 27 27 27 28 29 29 29 29 29 29 29 30 30
27 27 28 28 28 29 29 29 30 30 30 31 30 30 30 30 29 28 28 27 26 26 26 26 26 26 26 27 27 27 27 27 27 27 28 29 30 30 30 30 30 30 30 31
27 27 28 29 29 29 29 30 31 30 30 30 30 30 30 30 30 30 30 29 29 28 28 28 27 27 27 28 28 28 28 28 28 28 29 29 30 30 30 29 30 30 30 31
27 27 27 29 29 29 29 29 30 30 30 30 30 30 30 31 31 31 31 31 30 30 29 29 29 29 29 29 29 29 29 29 29 29 30 29 30 30 29 30 30 30 31 31
27 27 27 28 28 28 28 28 29 30 30 30 29 29 30 31 31 31 30 30 30 30 30 30 30 30 30 30 30 30 30 30 30 30 30 30 30 30 30 30 30 31 31 32
27 27 28 28 28 28 28 28 29 30 30 30 30 30 30 30 30 29 29 29 29 29 29 29 29 30 30 30 30 30 30 30 31 31 31 31 31 31 31 31 31 32 33 33
27 27 27 28 29 29 28 28 29 29 29 30 29 29 29 29 29 29 29 29 29 30 30 30 30 30 30 30 30 30 30 31 31 31 31 31 32 32 32 32 33 33 34 35
26 26 27 27 28 28 28 28 28 28 28 28 28 28 29 29 29 30 30 30 30 30 30 30 31 31 31 31 30 30 30 31 31 31 31 31 31 32 32 33 33 33 34 34
Wind_Direction
257 257 257 256 254 252 250 250 252 252 253 256 256 257 257 259 260 260 261 261 261 263 264 262 262 263 264 264 262 262 262 260 260 260 258 258 255 254 256 258 260 262 263 264
255 256 258 258 256 254 253 251 253 252 252 255 256 254 254 255 258 258 260 262 265 265 266 265 265 266 265 264 262 262 262 260 260 260 258 257 254 254 257 259 261 262 263 264
255 255 258 259 260 258 253 251 252 253 252 252 253 254 255 257 258 259 260 262 264 265 267 269 269 267 265 264 263 263 261 259 260 259 256 254 253 255 256 258 260 258 261 261
258 257 257 258 256 255 254 252 252 253 253 253 253 252 254 254 256 257 260 261 263 265 266 268 268 267 265 264 264 263 261 260 262 260 258 257 256 255 256 258 260 258 258 259
258 258 258 254 253 254 254 252 253 253 254 254 253 251 252 253 255 258 261 261 261 263 263 265 266 266 265 264 264 263 261 263 265 263 261 259 257 257 258 258 259 257 259 261
259 259 260 256 254 254 254 253 253 252 252 253 253 253 252 254 255 256 258 259 260 261 262 264 264 265 266 265 262 261 260 261 264 266 263 261 259 258 258 258 258 258 260 262
260 260 259 257 254 251 252 255 254 253 251 251 251 254 254 254 255 256 258 260 262 262 262 263 264 265 265 263 262 261 261 261 263 265 264 261 260 258 257 258 259 260 260 261
261 260 258 257 256 252 252 253 253 254 253 253 254 255 255 255 257 259 260 261 262 263 263 262 263 264 265 264 262 261 260 260 261 263 263 261 260 260 259 258 259 261 261 262
260 260 259 259 256 252 251 253 253 255 254 254 256 257 257 257 259 260 261 261 261 261 263 262 262 262 262 262 261 260 260 260 260 261 262 260 259 259 260 260 260 262 263 265
259 259 259 259 257 253 252 252 253 252 251 252 255 257 259 261 259 259 259 260 261 262 262 262 262 261 261 262 261 259 259 259 258 257 258 257 256 257 258 258 261 263 264 266
261 260 259 258 258 255 252 253 253 252 251 251 253 256 257 258 258 259 259 260 261 261 261 261 261 262 262 262 261 260 258 258 257 255 256 256 256 257 259 260 261 263 264 265
260 259 257 257 256 254 253 252 254 252 250 252 254 255 255 255 257 257 257 258 259 259 259 260 261 261 262 263 261 260 260 259 257 256 256 256 256 256 258 260 262 262 263 265
257 256 255 254 253 254 254 251 251 250 249 252 254 254 255 255 256 256 255 257 258 260 260 260 261 261 262 262 262 261 261 261 260 259 257 257 256 257 259 260 263 264 264 265
253 252 250 251 252 251 250 250 250 249 248 251 253 254 254 255 257 257 256 257 259 260 260 260 261 261 261 262 261 262 261 262 262 261 259 257 258 259 260 261 263 264 266 266
252 251 251 251 252 250 249 250 250 248 247 247 249 251 253 254 256 257 257 257 258 259 259 259 259 260 260 261 262 261 261 262 263 262 260 258 258 259 261 263 264 265 265 267
252 251 252 252 252 252 251 250 249 247 246 246 248 250 252 254 254 256 256 258 259 259 259 259 260 260 259 260 261 260 261 262 262 262 260 259 259 261 263 265 265 266 266 267
253 251 250 252 252 253 252 250 248 245 244 244 246 249 251 253 254 255 256 258 260 259 259 260 260 260 260 260 260 261 262 262 261 261 261 261 261 262 265 265 266 268 268 268
256 252 250 250 251 251 251 249 247 244 243 244 246 247 249 252 253 254 255 258 259 259 259 259 259 259 260 261 261 261 261 263 262 260 261 261 262 263 265 266 267 267 269 270
256 253 251 249 250 250 249 248 246 245 245 245 245 247 249 250 250 252 254 257 258 259 259 259 258 259 260 262 262 263 263 263 264 262 262 263 263 264 266 267 267 268 269 270
256 253 251 250 250 249 249 249 247 246 246 246 246 248 250 250 251 253 255 256 257 259 259 258 258 258 259 261 262 264 264 265 265 264 264 264 264 265 266 268 269 270 270 271
255 253 252 252 251 250 250 250 248 247 248 247 247 248 249 249 250 253 254 255 256 258 259 259 259 259 260 261 263 264 265 266 266 266 266 265 265 266 268 268 269 270 271 272
255 255 255 253 252 250 250 250 248 247 248 248 248 248 249 250 251 252 252 253 256 259 260 259 260 261 261 262 264 265 266 266 267 268 268 267 266 266 267 267 269 270 272 273
254 255 254 252 251 250 250 251 249 249 249 249 250 250 250 250 252 253 252 253 256 258 259 259 260 262 263 264 265 266 266 267 267 269 270 269 268 267 267 267 269 271 272 274
255 254 253 252 251 250 250 251 250 249 249 249 250 251 251 251 252 252 253 254 255 257 259 260 262 263 264 265 266 267 267 267 267 268 269 269 268 267 267 268 269 271 273 274
257 256 254 252 251 250 251 251 250 248 248 248 250 251 252 251 250 251 252 253 254 257 259 259 262 264 265 266 267 268 267 267 267 267 267 268 268 268 268 268 269 271 273 275
260 259 258 254 251 251 251 250 249 248 248 248 249 250 250 250 250 251 252 253 255 258 259 260 262 264 266 267 268 268 268 267 267 268 268 268 268 268 268 269 270 272 273 275
261 260 258 255 252 250 248 248 247 247 247 249 249 250 250 250 251 252 253 254 256 258 260 261 262 264 265 266 266 267 268 268 269 269 268 267 268 269 270 270 272 273 275 276
Height
5806 5806 5807 5807 5808 5808 5809 5810 5812 5814 5815 5817 5818 5819 5820 5820 5821 5822 5823 5823 5824 5824 5825 5825 5825 5825 5825 5825 5825 5826 5826 5826 5826 5827 5826 5827 5827 5828 5829 5829 5829 5830 5830 5830
5800 5800 5800 5801 5802 5803 5804 5805 5807 5808 5810 5813 5813 5814 5815 5816 5817 5818 5818 5819 5820 5820 5820 5820 5820 5821 5821 5821 5821 5821 5821 5821 5822 5822 5822 5822 5823 5824 5824 5824 5825 5825 5825 5826
5794 5794 5794 5795 5797 5797 5798 5800 5801 5802 5806 5806 5807 5808 5809 5810 5811 5812 5813 5814 5815 5815 5816 5816 5816 5816 5816 5816 5816 5817 5817 5817 5817 5817 5817 5818 5818 5819 5819 5819 5820 5820 5821 5821
5787 5788 5788 5792 5791 5792 5792 5794 5795 5797 5799 5800 5801 5803 5804 5805 5805 5806 5807 5809 5809 5810 5810 5811 5811 5811 5811 5811 5811 5811 5811 5812 5812 5812 5812 5812 5813 5813 5814 5814 5815 5815 5816 5816
5780 5780 5781 5785 5785 5785 5786 5787 5789 5791 5792 5793 5795 5796 5798 5799 5800 5801 5802 5803 5803 5804 5805 5805 5806 5806 5806 5806 5806 5806 5806 5806 5806 5806 5807 5807 5807 5808 5809 5809 5810 5810 5810 5811
5773 5773 5774 5778 5779 5779 5780 5781 5783 5784 5786 5787 5789 5790 5793 5793 5794 5795 5796 5797 5797 5798 5799 5799 5800 5800 5800 5800 5801 5801 5801 5801 5801 5801 5801 5801 5801 5802 5802 5803 5804 5804 5805 5805
5766 5766 5768 5770 5771 5773 5774 5776 5777 5777 5779 5781 5782 5784 5786 5786 5788 5789 5790 5790 5791 5792 5792 5793 5793 5794 5794 5794 5794 5795 5795 5795 5795 5795 5795 5795 5796 5796 5796 5797 5797 5798 5799 5799
5759 5759 5763 5763 5764 5765 5767 5768 5769 5771 5772 5774 5775 5777 5778 5780 5781 5782 5783 5784 5784 5785 5785 5786 5786 5787 5787 5787 5788 5788 5788 5789 5789 5789 5789 5790 5790 5790 5790 5791 5791 5792 5792 5793
5753 5755 5755 5755 5756 5757 5759 5760 5762 5764 5765 5767 5768 5770 5771 5773 5774 5775 5776 5776 5777 5778 5778 5779 5779 5779 5780 5780 5780 5781 5782 5782 5783 5783 5783 5784 5784 5784 5785 5785 5785 5785 5786 5786
5744 5746 5747 5747 5747 5749 5750 5752 5754 5756 5758 5759 5761 5762 5764 5765 5766 5767 5768 5769 5770 5771 5771 5772 5772 5772 5772 5773 5773 5774 5775 5775 5776 5776 5777 5777 5778 5778 5778 5779 5779 5779 5779 5780
5736 5738 5738 5739 5739 5741 5743 5744 5746 5748 5750 5751 5753 5755 5756 5758 5759 5760 5761 5762 5762 5763 5764 5764 5765 5765 5765 5765 5766 5766 5767 5768 5769 5769 5770 5771 5771 5772 5772 5773 5773 5773 5773 5774
5728 5729 5730 5731 5732 5733 5735 5736 5738 5740 5742 5743 5744 5747 5748 5750 5751 5752 5753 5754 5755 5756 5756 5757 5757 5758 5758 5758 5758 5759 5760 5761 5761 5762 5763 5764 5764 5765 5765 5766 5766 5766 5767 5767
5720 5720 5721 5723 5724 5725 5726 5728 5730 5732 5734 5735 5737 5738 5740 5742 5743 5744 5746 5747 5747 5748 5749 5749 5750 5750 5751 5751 5752 5752 5753 5754 5754 5755 5756 5756 5757 5758 5759 5760 5760 5760 5760 5760
5710 5711 5713 5714 5716 5717 5718 5720 5722 5724 5725 5727 5729 5730 5732 5734 5735 5736 5738 5739 5740 5741 5741 5742 5742 5743 5744 5744 5745 5745 5746 5746 5747 5748 5748 5749 5750 5751 5752 5752 5753 5753 5753 5753
5701 5703 5705 5706 5708 5709 5711 5712 5714 5716 5717 5719 5721 5723 5725 5726 5728 5729 5730 5731 5732 5733 5733 5734 5735 5736 5736 5737 5737 5738 5739 5739 5739 5740 5741 5742 5743 5744 5744 5745 5745 5746 5746 5746
5693 5694 5696 5698 5699 5701 5702 5704 5706 5707 5709 5711 5713 5715 5717 5718 5720 5721 5722 5723 5724 5725 5726 5726 5727 5728 5729 5729 5730 5731 5731 5732 5732 5733 5734 5734 5735 5736 5737 5737 5737 5738 5738 5738
5684 5686 5687 5689 5691 5692 5694 5695 5697 5699 5701 5703 5705 5707 5709 5710 5712 5713 5714 5715 5716 5717 5718 5719 5720 5720 5721 5722 5722 5723 5724 5724 5725 5726 5726 5727 5728 5728 5729 5729 5729 5729 5729 5729
5675 5677 5678 5680 5682 5683 5685 5687 5689 5691 5693 5695 5697 5698 5700 5702 5704 5705 5707 5708 5709 5710 5710 5711 5712 5713 5713 5714 5715 5715 5716 5716 5717 5718 5719 5719 5720 5720 5720 5721 5721 5721 5721 5720
5666 5668 5669 5671 5672 5674 5676 5678 5680 5682 5684 5686 5688 5690 5692 5694 5695 5697 5698 5699 5701 5702 5703 5703 5704 5704 5705 5706 5706 5707 5708 5708 5709 5709 5710 5711 5711 5712 5712 5712 5712 5712 5711 5711
5658 5659 5661 5662 5663 5665 5667 5669 5671 5673 5675 5677 5679 5681 5683 5685 5686 5688 5689 5691 5692 5693 5694 5695 5695 5696 5697 5697 5698 5698 5699 5699 5700 5700 5701 5701 5702 5702 5702 5702 5702 5702 5702 5702
5650 5651 5652 5654 5655 5657 5659 5660 5662 5664 5666 5668 5670 5672 5674 5676 5677 5679 5680 5682 5684 5684 5685 5686 5687 5688 5688 5688 5689 5689 5690 5690 5690 5691 5691 5692 5692 5692 5692 5692 5692 5692 5692 5692
5641 5643 5644 5645 5647 5648 5650 5651 5653 5655 5657 5659 5661 5663 5664 5666 5668 5669 5671 5673 5674 5675 5676 5677 5678 5678 5679 5679 5679 5680 5680 5680 5681 5681 5681 5681 5682 5682 5682 5682 5682 5682 5682 5682
5633 5634 5635 5636 5637 5639 5641 5642 5644 5646 5648 5650 5652 5653 5655 5657 5658 5660 5662 5663 5664 5665 5666 5667 5668 5669 5669 5669 5670 5670 5670 5671 5671 5671 5671 5671 5672 5672 5672 5672 5672 5672 5672 5671
5625 5625 5626 5627 5628 5630 5632 5633 5635 5637 5638 5640 5642 5644 5645 5647 5649 5650 5651 5653 5654 5655 5657 5658 5658 5659 5659 5659 5660 5660 5661 5661 5661 5661 5661 5661 5661 5661 5662 5662 5662 5661 5661 5660
5616 5617 5617 5618 5620 5621 5623 5624 5625 5627 5629 5631 5633 5634 5636 5637 5639 5640 5642 5643 5644 5646 5647 5648 5649 5649 5649 5650 5650 5650 5650 5650 5651 5651 5651 5651 5651 5651 5651 5651 5651 5651 5650 5650
5607 5608 5608 5609 5611 5612 5613 5614 5616 5618 5620 5622 5623 5625 5626 5627 5629 5630 5632 5634 5635 5636 5637 5638 5639 5639 5639 5639 5640 5640 5640 5640 5640 5640 5640 5640 5640 5640 5640 5640 5640 5640 5639 5638
5598 5599 5599 5600 5601 5602 5603 5605 5607 5609 5611 5613 5614 5615 5616 5618 5619 5621 5622 5624 5625 5626 5627 5628 5628 5629 5629 5629 5629 5629 5629 5629 5629 5629 5629 5629 5630 5630 5629 5629 5629 5628 5627 5627